Terminal Aerodrome Forecast
Issued by NWS

Home | Current Version | Previous Version | Text Only | Print | Product List | Glossary On
Versions: 1 2 3 4 5 6 7 8 9 10 11 12 13 14 15 16 17 18 19 20
112
FTUS43 KAPX 090830 AAA
TAFAPN
TAF AMD
KAPN 090830Z 0909/1006 30006KT P6SM -SHSN SCT025 OVC035
      TEMPO 0909/0913 1SM -SHSN BKN025
     FM091300 31006KT P6SM VCSH BKN035
     FM100000 32004KT P6SM OVC060
     FM100500 00000KT P6SM BKN040=

USA.gov is the U.S. government's official web portal to all federal, state and local government web resources and services.